Rochelle, IL

10:23 AM CDT on April 27, 2017 (GMT -0500)
Rochelle

Weather History for KRPJ - March, 2014

Change the Weather History Date:

Monday, March 10, 2014

  Actual Average (KRFD) Record (KRFD)
Temperature  
Mean Temperature 41 °F -  
Max Temperature 48 °F 42 °F 70 °F (1955)
Min Temperature 33 °F 23 °F -2 °F (2003)
Degree Days  
Heating Degree Days 24    
Moisture  
Dew Point 34 °F    
Average Humidity 81    
Maximum Humidity 94    
Minimum Humidity 68    
Precipitation  
Precipitation 0.00 in - - ()
Sea Level Pressure  
Sea Level Pressure 29.71 in    
Wind  
Wind Speed 9 mph (SW)    
Max Wind Speed 15 mph    
Max Gust Speed -    
Visibility 10 miles    
Events      
Averages and records for this station are not official NWS values.
T = Trace of Precipitation, MM = Missing Value Source: NWS Daily Summary

Daily Weather History Graph

Daily Weather History Graph

Search for Another Location

Airport or City:

Trip Planner

Search our weather history database for the weather conditions in past years. The results will help you decide how hot, cold, wet, or windy it might be!

Date:

Astronomy

Mar. 10, 2014 Rise Set
Actual Time 7:16 AM CDT 6:57 PM CDT
Civil Twilight 6:48 AM CDT 7:25 PM CDT
Nautical Twilight 6:16 AM CDT 7:57 PM CDT
Astronomical Twilight 5:43 AM CDT 8:29 PM CDT
Moon 1:37 PM CDT (3/10) 3:32 AM CDT (3/10)
Length of Visible Light 12h 36m
Length of Day
11h 40m
Waxing Gibbous, 70% of the Moon is Illuminated
Mar 10
Waxing Gibbous
Mar 16
Full
Mar 23
Last Quarter
Mar 30
New
Apr 7
First Quarter

Hourly Weather History & Observations

Time (CDT) Temp. Windchill Dew Point Humidity Pressure Visibility Wind Dir Wind Speed Gust Speed Precip Events Conditions
12:15 AM 36.5 °F 29.7 °F 31.6 °F 83% 29.80 in 10.0 mi SW 9.2 mph - N/A   Clear
12:35 AM 36.1 °F 28.7 °F 31.6 °F 84% 29.79 in 10.0 mi SW 10.4 mph - N/A   Clear
12:55 AM 36.1 °F 29.3 °F 31.8 °F 84% 29.78 in 10.0 mi SW 9.2 mph - N/A   Clear
1:15 AM 36.9 °F 30.1 °F 32.0 °F 83% 29.77 in 10.0 mi SW 9.2 mph - N/A   Scattered Clouds
1:35 AM 37.0 °F 29.8 °F 31.8 °F 81% 29.77 in 10.0 mi SW 10.4 mph - N/A   Overcast
1:55 AM 37.4 °F 29.8 °F 31.8 °F 80% 29.77 in 10.0 mi SW 11.5 mph - N/A   Mostly Cloudy
2:15 AM 37.4 °F 28.5 °F 32.0 °F 81% 29.76 in 10.0 mi SW 15.0 mph - N/A   Scattered Clouds
2:35 AM 37.4 °F 30.3 °F 31.8 °F 80% 29.76 in 10.0 mi WSW 10.4 mph - N/A   Mostly Cloudy
2:55 AM 36.7 °F 30.5 °F 32.0 °F 83% 29.76 in 10.0 mi WSW 8.1 mph - N/A   Overcast
3:15 AM 36.9 °F 30.7 °F 32.0 °F 83% 29.76 in 10.0 mi WSW 8.1 mph - N/A   Overcast
3:35 AM 36.7 °F 29.4 °F 32.0 °F 83% 29.75 in 10.0 mi WSW 10.4 mph - N/A   Overcast
3:55 AM 36.5 °F 29.2 °F 32.0 °F 84% 29.74 in 10.0 mi WSW 10.4 mph - N/A   Overcast
4:15 AM 36.1 °F 29.3 °F 32.0 °F 85% 29.74 in 10.0 mi WSW 9.2 mph - N/A   Overcast
4:35 AM 36.0 °F 28.5 °F 32.0 °F 86% 29.74 in 10.0 mi WSW 10.4 mph - N/A   Scattered Clouds
4:55 AM 35.8 °F 28.3 °F 32.0 °F 86% 29.73 in 10.0 mi SW 10.4 mph - N/A   Clear
5:15 AM 36.0 °F 29.0 °F 32.0 °F 86% 29.73 in 10.0 mi SW 9.2 mph - N/A   Clear
5:35 AM 35.8 °F 29.4 °F 31.8 °F 86% 29.73 in 10.0 mi SW 8.1 mph - N/A   Clear
5:55 AM 35.6 °F 28.6 °F 32.0 °F 87% 29.72 in 10.0 mi SW 9.2 mph - N/A   Clear
6:15 AM 35.6 °F 30.7 °F 31.8 °F 86% 29.72 in 10.0 mi SW 5.8 mph - N/A   Clear
6:35 AM 35.6 °F 28.6 °F 32.0 °F 87% 29.72 in 10.0 mi SW 9.2 mph - N/A   Clear
6:55 AM 35.8 °F 30.1 °F 31.8 °F 86% 29.73 in 10.0 mi WSW 6.9 mph - N/A   Clear
7:15 AM 35.6 °F 30.7 °F 31.8 °F 86% 29.72 in 10.0 mi WSW 5.8 mph - N/A   Clear
7:35 AM 35.8 °F 29.4 °F 32.0 °F 86% 29.72 in 10.0 mi SW 8.1 mph - N/A   Clear
7:55 AM 36.5 °F 29.7 °F 32.0 °F 84% 29.72 in 10.0 mi WSW 9.2 mph - N/A   Clear
8:15 AM 37.4 °F 29.3 °F 32.0 °F 81% 29.72 in 10.0 mi WSW 12.7 mph - N/A   Clear
8:35 AM 37.9 °F 30.0 °F 32.0 °F 79% 29.72 in 10.0 mi WSW 12.7 mph - N/A   Clear
8:55 AM 38.5 °F 30.7 °F 32.0 °F 78% 29.71 in 10.0 mi WSW 12.7 mph - N/A   Clear
9:15 AM 38.7 °F 30.1 °F 32.2 °F 78% 29.71 in 10.0 mi WSW 15.0 mph - N/A   Clear
9:35 AM 39.4 °F 31.8 °F 32.2 °F 75% 29.71 in 10.0 mi WSW 12.7 mph - N/A   Clear
9:55 AM 39.6 °F 31.7 °F 32.2 °F 75% 29.72 in 10.0 mi WSW 13.8 mph - N/A   Clear
10:15 AM 40.1 °F 32.7 °F 32.2 °F 73% 29.72 in 10.0 mi WSW 12.7 mph - N/A   Clear
10:35 AM 40.1 °F 33.2 °F 32.4 °F 74% 29.72 in 10.0 mi WSW 11.5 mph - N/A   Clear
10:55 AM 40.1 °F 32.4 °F 32.5 °F 74% 29.71 in 10.0 mi WSW 13.8 mph - N/A   Clear
11:15 AM 41.0 °F 34.3 °F 32.9 °F 73% 29.71 in 10.0 mi SW 11.5 mph - N/A   Clear
11:35 AM 41.9 °F 37.5 °F 33.4 °F 72% 29.72 in 10.0 mi WSW 6.9 mph - N/A   Clear
11:55 AM 42.4 °F 36.5 °F 33.3 °F 70% 29.71 in 10.0 mi WSW 10.4 mph - N/A   Clear
12:15 PM 42.3 °F 36.8 °F 33.4 °F 71% 29.71 in 10.0 mi WSW 9.2 mph - N/A   Clear
12:35 PM 43.5 °F 38.3 °F 34.2 °F 70% 29.70 in 10.0 mi WSW 9.2 mph - N/A   Clear
12:55 PM 43.9 °F 38.3 °F 34.3 °F 69% 29.70 in 10.0 mi WSW 10.4 mph - N/A   Clear
1:15 PM 44.1 °F 38.1 °F 34.7 °F 70% 29.69 in 10.0 mi WSW 11.5 mph - N/A   Clear
1:35 PM 43.9 °F 37.9 °F 34.9 °F 71% 29.69 in 10.0 mi WSW 11.5 mph - N/A   Clear
1:55 PM 44.1 °F 38.6 °F 35.4 °F 72% 29.69 in 10.0 mi WSW 10.4 mph - N/A   Clear
2:15 PM 45.1 °F 40.8 °F 36.3 °F 71% 29.68 in 10.0 mi SW 8.1 mph - N/A   Clear
2:35 PM 46.4 °F 41.9 °F 36.9 °F 69% 29.69 in 10.0 mi WSW 9.2 mph - N/A   Clear
2:55 PM 46.4 °F 42.4 °F 37.4 °F 71% 29.69 in 10.0 mi WSW 8.1 mph - N/A   Clear
3:15 PM 46.6 °F - 37.8 °F 71% 29.68 in 10.0 mi SW 6.9 mph - N/A   Clear
3:35 PM 48.0 °F - 37.9 °F 68% 29.68 in 10.0 mi WSW 8.1 mph - N/A   Clear
3:55 PM 46.0 °F 41.0 °F 37.6 °F 72% 29.68 in 10.0 mi WSW 10.4 mph - N/A   Clear
4:15 PM 45.5 °F 40.3 °F 37.8 °F 74% 29.68 in 10.0 mi SW 10.4 mph - N/A   Clear
4:35 PM 44.8 °F 39.0 °F 37.4 °F 75% 29.68 in 10.0 mi SW 11.5 mph - N/A   Clear
4:55 PM 44.2 °F 38.4 °F 37.0 °F 76% 29.68 in 10.0 mi WSW 11.5 mph - N/A   Clear
5:15 PM 43.7 °F 38.6 °F 37.6 °F 79% 29.68 in 10.0 mi WSW 9.2 mph - N/A   Clear
5:35 PM 43.3 °F 39.9 °F 37.2 °F 79% - 10.0 mi SW 5.8 mph - N/A   Clear
5:55 PM 42.8 °F 40.1 °F 37.0 °F 80% 29.69 in 10.0 mi SW 4.6 mph - N/A   Clear
6:15 PM 41.4 °F 36.8 °F 36.0 °F 81% 29.68 in 10.0 mi SW 6.9 mph - N/A   Clear
6:35 PM 39.7 °F 35.6 °F 35.4 °F 85% 29.69 in 10.0 mi SW 5.8 mph - N/A   Clear
6:55 PM 38.8 °F 33.8 °F 35.1 °F 86% 29.69 in 7.0 mi SW 6.9 mph - N/A   Clear
7:15 PM 37.8 °F 34.2 °F 34.5 °F 88% 29.70 in 10.0 mi SW 4.6 mph - N/A   Clear
7:35 PM 36.9 °F 33.1 °F 33.8 °F 89% 29.70 in 10.0 mi WSW 4.6 mph - N/A   Clear
7:55 PM 37.4 °F - 34.9 °F 91% 29.69 in 10.0 mi Calm Calm - N/A   Clear
8:15 PM 37.0 °F 31.6 °F 34.5 °F 91% 29.69 in 10.0 mi SW 6.9 mph - N/A   Clear
8:35 PM 36.5 °F - 33.8 °F 90% 29.69 in 10.0 mi Calm Calm - N/A   Clear
8:50 PM 36.9 °F 34.3 °F 34.7 °F 92% 29.69 in 10.0 mi SW 3.5 mph - N/A   Clear
9:15 PM 36.7 °F - 34.3 °F 91% 29.70 in 10.0 mi Calm Calm - N/A   Clear
9:35 PM 36.1 °F 33.5 °F 34.0 °F 92% 29.70 in 10.0 mi SSW 3.5 mph - N/A   Clear
9:55 PM 36.7 °F - 34.7 °F 93% 29.70 in 10.0 mi Calm Calm - N/A   Clear
10:15 PM 36.0 °F - 33.8 °F 92% 29.71 in 7.0 mi Calm Calm - N/A   Clear
10:35 PM 36.0 °F - 34.0 °F 93% 29.71 in 7.0 mi Calm Calm - N/A   Clear
10:55 PM 35.6 °F - 33.1 °F 91% 29.70 in 7.0 mi Calm Calm - N/A   Clear
11:15 PM 34.7 °F - 32.9 °F 93% 29.70 in 5.0 mi Calm Calm - N/A   Clear
11:35 PM 34.7 °F - 32.9 °F 93% 29.70 in 7.0 mi Calm Calm - N/A   Clear
11:55 PM 33.6 °F - 32.0 °F 94% 29.69 in 5.0 mi Calm Calm - N/A   Clear